Weather in Salihli

Turkey     38°29′02″N   28°08′47″E
temp.,
°C
wind,
m/s
gust,
m/s
humid.,
%
clouds,
%
prec.,
mm/h
press.,
hPa
HPBL,
m
15 may, sat
sat1500:00+16ssw11500 0.0 101511
03:00+15sse11455 0.0 101411
06:00+14sse11455 0.0 101310
09:00+20ne22460 0.0 1013477
12:00+24n22352 0.0 10121055
15:00+29nw3422100 0.0 10091937
18:00+27wsw5625100 0.0 1009984
21:00+20w2240100 0.0 100921
16 may, sun
sun1600:00+18s1136100 0.0 100911
03:00+15sw11618 0.4 100911
06:00+14sse11575 0.3 100811
09:00+20nnw22472 0.3 1008500
12:00+24nw44341 0.0 10071782
15:00+26nw773032 0.0 10062625
18:00+23wnw683913 0.0 10061527
21:00+17w35625 0.1 1009114
17 may, mon
mon1700:00+15w22710 0.0 101012
03:00+13wsw12760 0.0 101110
06:00+12sw117436 0.0 101110
09:00+17nnw11566 0.0 1012435
12:00+22nnw22380 0.0 10121041
15:00+26nw34315 0.0 10101424
18:00+27nw453014 0.0 10091383
21:00+20wsw334920 0.0 101124
18 may, tue
tue1800:00+18ssw11520 0.0 101211
03:00+17ssw11520 0.0 101111
06:00+17se12500 0.0 101211
09:00+23ne22361 0.0 1012469
12:00+28nnw23298 0.0 10121128
15:00+31nw34265 0.0 10102112
18:00+30wsw5526100 0.0 10091647
21:00+23sw1242100 0.0 101111
19 may, wed
wed1900:00+20ssw11465 0.0 101211
03:00+19sse11498 0.0 101111
06:00+19sse22502 0.0 101017
09:00+26ne12345 0.0 1010553
12:00+31wnw34223 0.0 10091753
15:00+33wsw45190 0.0 10072277
18:00+31wsw55210 0.0 10071236
21:00+21w33470 0.0 100924